Regional Weather Roundup
Issued by NWS

Home | Current Version | Previous Version | Text Only | Print | Product List | Glossary On
Versions: 1 2 3 4 5 6 7 8 9 10 11 12 13 14 15 16 17 18 19 20 21 22 23 24 25 26 27 28 29 30 31 32 33 34 35 36 37 38 39 40 41 42 43 44 45 46 47 48 49 50
000
ASUS43 KLSX 282007
RWRMO

WEATHER SUMMARY FOR MISSOURI
NATIONAL WEATHER SERVICE SPRINGFIELD MO
200 PM CST SUN DEC 28 2014

NOTE: "FAIR" INDICATES FEW OR NO CLOUDS BELOW 12,000 FEET WITH NO
       SIGNIFICANT WEATHER AND/OR OBSTRUCTIONS TO VISIBILITY.
       CURRENT SKY AND/OR WEATHER CONDITIONS ARE NOT AVAILABLE FOR
       CHILLICOTHE AND FARMINGTON.

MOZ001>031-035>038-043-044-053-054-282100-
...NORTHERN AND WESTERN MISSOURI...

CITY           SKY/WX    TMP DP  RH WIND       PRES   REMARKS
KANSAS CTY INT MOSUNNY   39  17  41 SW7       30.13F
KANSAS C DTWN  SUNNY     40  17  39 S6        30.15F
LEE`S SUMMIT   SUNNY     38  18  44 W5        30.15F
ST JOSEPH      SUNNY     39  19  44 S7        30.15F
CHILLICOTHE      N/A     38  22  52 S5        30.17F
KIRKSVILLE     SUNNY     36  19  50 SW6       30.16F

$$
MOZ066>068-077>081-088>096-101>105-282100-
...SOUTHWEST MISSOURI...

CITY           SKY/WX    TMP DP  RH WIND       PRES   REMARKS
SPRINGFIELD    SUNNY     36  25  64 N5        30.15F
JOPLIN         SUNNY     36  24  62 VRB3      30.18F

$$
MOZ032>034-039>042-045>050-055>058-069>072-282100-
...CENTRAL MISSOURI...

CITY           SKY/WX    TMP DP  RH WIND       PRES   REMARKS
COLUMBIA       SUNNY     35  24  64 SW5       30.18F
JEFFERSON CITY SUNNY     35  23  61 CALM      30.20F
ROLLA          MOSUNNY   34  25  69 CALM      30.15F
SEDALIA        SUNNY     37  17  44 VRB3      30.18F
WHITEMAN AFB   SUNNY     32  21  64 S7        30.24F WCI  26
WARRENSBURG    SUNNY     36  21  55 S6        30.17
OSAGE BEACH    SUNNY     36  25  64 CALM      30.18F

$$
MOZ051-052-059>065-282100-
...EAST CENTRAL MISSOURI...

CITY           SKY/WX    TMP DP  RH WIND       PRES   REMARKS
ST LOUIS INTL  CLOUDY    36  25  64 NW6       30.21S
SPIRIT OF STL  CLOUDY    35  25  66 CALM      30.20F
ST CHARLES     CLOUDY    35  25  66 VRB7      30.20F WCI  29

$$
MOZ072>076-082>087-097>100-106>115-282100-
...SOUTH CENTRAL AND SOUTHEAST MISSOURI...

CITY           SKY/WX    TMP DP  RH WIND       PRES   REMARKS
CAPE GIRARDEAU CLOUDY    35  28  75 N8        30.19F WCI  29
FARMINGTON     CLOUDY    32  27  80 S5        30.19S WCI  27
POPLAR BLUFF   CLOUDY    36  28  73 N7        30.18F
WEST PLAINS    CLOUDY    33  25  72 N5        30.15F WCI  29

$$


USA.gov is the U.S. government's official web portal to all federal, state and local government web resources and services.